Date,TemperatureHighF,TemperatureAvgF,TemperatureLowF,DewpointHighF,DewpointAvgF,DewpointLowF,HumidityHigh,HumidityAvg,HumidityLow,PressureMaxIn,PressureMinIn,WindSpeedMaxMPH,WindSpeedAvgMPH,GustSpeedMaxMPH,PrecipitationSumIn
2013-3-1,29,22,18,24,19,16,92,88,75,30.49,30.34,13,6,14,0.00
2013-3-2,44,31,23,34,27,21,100,85,67,30.34,30.02,15,6,18,0.00
2013-3-3,39,31,26,33,29,24,96,91,79,30.02,29.67,20,11,21,0.14
2013-3-4,33,27,19,32,25,17,97,92,86,30.21,29.67,30,12,33,0.03
2013-3-5,19,15,4,17,12,1,92,88,80,30.55,30.21,24,11,28,0.00
2013-3-6,19,10,1,15,7,-2,100,88,83,30.54,30.25,23,8,25,0.00
2013-3-7,28,22,13,24,19,11,92,89,85,30.28,30.15,23,9,26,0.01
2013-3-8,31,23,15,26,21,13,94,90,77,30.31,30.10,14,4,15,0.04
2013-3-9,31,23,13,27,20,10,95,89,80,30.26,30.00,28,11,29,0.01
2013-3-10,25,15,8,17,11,5,90,83,68,30.43,30.20,24,8,26,0.00
2013-3-11,36,24,12,28,19,9,91,82,64,30.20,29.95,38,16,39,0.26
2013-3-12,24,18,7,22,13,3,92,82,66,30.44,30.05,39,15,39,0.07
2013-3-13,44,24,4,30,16,0,90,75,50,30.44,30.05,20,8,22,0.00
2013-3-14,57,39,25,44,33,22,93,80,58,30.16,30.03,23,7,23,0.00
2013-3-15,25,16,4,22,12,0,92,86,83,30.30,29.99,24,11,24,0.00
2013-3-16,17,7,-2,11,2,-6,88,82,74,30.39,30.29,18,6,18,0.00
2013-3-17,24,16,8,22,13,4,94,87,82,30.32,29.62,35,16,35,0.00
2013-3-18,19,9,4,15,3,-1,87,75,61,30.18,29.68,42,20,48,0.00
2013-3-19,15,8,1,10,3,-3,86,79,67,30.58,30.16,28,10,30,0.00
2013-3-20,23,10,0,12,4,-4,88,76,59,30.58,30.23,21,7,23,0.00
2013-3-21,24,12,2,15,6,-3,84,78,57,30.24,30.08,25,14,27,0.00
2013-3-22,24,15,9,20,12,6,92,86,82,30.24,30.12,18,10,20,0.00
2013-3-23,22,18,15,17,14,12,92,86,74,30.35,30.24,18,8,19,0.21
2013-3-24,25,18,12,20,14,10,92,86,77,30.45,30.30,23,10,23,0.00
2013-3-25,25,14,2,18,10,0,90,84,71,30.54,30.45,14,6,16,0.00
2013-3-26,30,17,5,22,13,2,90,83,66,30.47,30.29,19,8,19,0.00
2013-3-27,36,21,9,29,18,7,93,86,76,30.34,30.26,15,8,15,0.02
2013-3-28,42,28,17,36,25,15,96,89,74,30.30,30.24,14,6,15,0.00
2013-3-29,45,31,20,39,28,18,96,89,72,30.28,30.06,20,5,21,0.00
2013-3-30,51,37,28,37,31,25,97,82,51,30.10,30.03,30,10,34,0.01
2013-3-31,32,26,15,26,19,11,87,76,52,30.36,30.06,22,9,28,0.00